ECHOSTAR 17

Last updated on Wed Sep 09 2026 00:02:59 GMT+0000 (Coordinated Universal Time)

1 38551U 12035A 26251.49518216 -.00000096 00000+0 00000+0 0 9999 2 38551 0.0201 131.0903 0002236 34.9777 252.6576 1.00271278 51898
UTC large
Height (km)
Speed (km/s)
/
Latitude / Longitude
Inclination (degrees)
Orbital Period (minutes)
Azimuth
Elevation
Range (km)
Doppler Factor

Next 0 passes for location: London (51.5072 / 0.1276)

No passes found over London.
ECHOSTAR 17